When you browse on this site, cookies collect data to enhance your experience and personalize the content and advertising you see.
Visit our Privacy Policy to learn more. By continuing to use the site, you agree to this use of cookies and data.
  • In Deutschland
  • Länderverzeichnis
  • Für 7 Tage
  • Wassertemperatur
  • Satellitenkarten
  • Wetterkarte
  • Widgets
  • user-avatar
    Anmelden

    Stündliche Wetter Warburg

    Heute, 23 Mai, Donnerstag

    Zeit Temperatur Niederschläge Wind Luftdruck Luftfeuchtigkeit
    00:00 +9°C° 0 mm 1 m/S 744 mmHg 93%
    01:00 +8°C° 0 mm 1 m/S 744 mmHg 93%
    02:00 +8°C° 0 mm 1 m/S 744 mmHg 94%
    03:00 +8°C° 0 mm 1 m/S 744 mmHg 94%
    04:00 +8°C° 0 mm 1 m/S 744 mmHg 94%
    05:00 +9°C° 0 mm 1 m/S 744 mmHg 91%
    06:00 +11°C° 0 mm 1 m/S 744 mmHg 87%
    07:00 +12°C° 0 mm 1 m/S 744 mmHg 84%
    08:00 +14°C° 0 mm 1 m/S 744 mmHg 76%
    09:00 +16°C° 0 mm 2 m/S 744 mmHg 68%
    10:00 +18°C° 0 mm 2 m/S 744 mmHg 60%
    11:00 +18°C° 0 mm 2 m/S 744 mmHg 57%
    12:00 +20°C° 0 mm 1 m/S 744 mmHg 55%
    13:00 +21°C° 0 mm 1 m/S 744 mmHg 53%
    14:00 +21°C° 0 mm 1 m/S 743 mmHg 53%
    15:00 +21°C° 0 mm 1 m/S 743 mmHg 53%
    16:00 +21°C° 0 mm 1 m/S 743 mmHg 53%
    17:00 +20°C° 0 mm 1 m/S 743 mmHg 59%
    18:00 +17°C° 0 mm 0 m/S 742 mmHg 65%
    19:00 +16°C° 0 mm 0 m/S 742 mmHg 72%
    20:00 +14°C° 0 mm 0 m/S 742 mmHg 75%
    21:00 +13°C° 0 mm 0 m/S 742 mmHg 78%
    22:00 +11°C° 0 mm 0 m/S 742 mmHg 81%
    23:00 +12°C° 0 mm 1 m/S 742 mmHg 82%

    Morgen, 24 Mai, Freitag

    Zeit Temperatur Niederschläge Wind Luftdruck Luftfeuchtigkeit
    00:00 +11°C° 0 mm 1 m/S 742 mmHg 84%
    01:00 +10°C° 0 mm 1 m/S 742 mmHg 85%
    02:00 +10°C° 0 mm 1 m/S 742 mmHg 84%
    03:00 +10°C° 0 mm 1 m/S 742 mmHg 83%
    04:00 +9°C° 0 mm 1 m/S 742 mmHg 82%
    05:00 +11°C° 0 mm 1 m/S 742 mmHg 80%
    06:00 +13°C° 0 mm 1 m/S 742 mmHg 77%
    07:00 +14°C° 0 mm 1 m/S 742 mmHg 75%
    08:00 +16°C° 0 mm 1 m/S 742 mmHg 70%
    09:00 +18°C° 0 mm 2 m/S 742 mmHg 64%
    10:00 +20°C° 0 mm 2 m/S 742 mmHg 59%
    11:00 +20°C° 0.5 mm 2 m/S 741 mmHg 65%
    12:00 +20°C° 0.5 mm 3 m/S 741 mmHg 71%
    13:00 +20°C° 0.5 mm 3 m/S 741 mmHg 77%
    14:00 +19°C° 0.8 mm 3 m/S 741 mmHg 78%
    15:00 +19°C° 0.8 mm 3 m/S 740 mmHg 79%
    16:00 +19°C° 0.8 mm 3 m/S 740 mmHg 80%
    17:00 +19°C° 0.4 mm 2 m/S 740 mmHg 83%
    18:00 +18°C° 0.4 mm 2 m/S 740 mmHg 85%
    19:00 +17°C° 0.4 mm 2 m/S 740 mmHg 88%
    20:00 +16°C° 0 mm 2 m/S 741 mmHg 90%
    21:00 +14°C° 0 mm 2 m/S 741 mmHg 93%
    22:00 +12°C° 0 mm 2 m/S 741 mmHg 96%
    23:00 +11°C° 0 mm 1 m/S 741 mmHg 96%

    übermorgen, 25 Mai, Samstag

    Zeit Temperatur Niederschläge Wind Luftdruck Luftfeuchtigkeit
    00:00 +10°C° 0 mm 1 m/S 741 mmHg 97%
    01:00 +10°C° 0 mm 1 m/S 741 mmHg 98%
    02:00 +9°C° 0 mm 1 m/S 741 mmHg 98%
    03:00 +8°C° 0 mm 1 m/S 741 mmHg 98%
    04:00 +7°C° 0 mm 1 m/S 742 mmHg 98%
    05:00 +8°C° 0 mm 1 m/S 742 mmHg 97%
    06:00 +8°C° 0 mm 2 m/S 742 mmHg 95%
    07:00 +9°C° 0 mm 2 m/S 742 mmHg 94%
    08:00 +10°C° 0 mm 2 m/S 742 mmHg 90%
    09:00 +10°C° 0 mm 2 m/S 742 mmHg 85%
    10:00 +12°C° 0 mm 2 m/S 743 mmHg 81%
    11:00 +13°C° 0 mm 2 m/S 743 mmHg 77%
    12:00 +14°C° 0 mm 3 m/S 743 mmHg 72%
    13:00 +16°C° 0 mm 3 m/S 742 mmHg 68%
    14:00 +16°C° 0 mm 3 m/S 742 mmHg 70%
    15:00 +14°C° 0 mm 4 m/S 742 mmHg 71%
    16:00 +14°C° 0 mm 4 m/S 742 mmHg 72%
    17:00 +14°C° 0 mm 4 m/S 742 mmHg 74%
    18:00 +13°C° 0 mm 3 m/S 742 mmHg 77%
    19:00 +14°C° 0 mm 2 m/S 742 mmHg 79%
    20:00 +12°C° 0 mm 2 m/S 742 mmHg 84%
    21:00 +10°C° 0 mm 2 m/S 742 mmHg 89%
    22:00 +8°C° 0 mm 2 m/S 743 mmHg 94%
    23:00 +7°C° 0 mm 2 m/S 743 mmHg 95%

    26 Mai, Sonntag

    Zeit Temperatur Niederschläge Wind Luftdruck Luftfeuchtigkeit
    00:00 +7°C° 0 mm 2 m/S 742 mmHg 96%
    01:00 +6°C° 0 mm 2 m/S 742 mmHg 96%
    02:00 +6°C° 0 mm 2 m/S 742 mmHg 96%
    03:00 +6°C° 0 mm 2 m/S 742 mmHg 96%
    04:00 +6°C° 0 mm 2 m/S 742 mmHg 95%
    05:00 +7°C° 0 mm 3 m/S 742 mmHg 92%
    06:00 +7°C° 0 mm 4 m/S 742 mmHg 89%
    07:00 +8°C° 0 mm 5 m/S 742 mmHg 86%
    08:00 +10°C° 0 mm 5 m/S 742 mmHg 80%
    09:00 +12°C° 0 mm 5 m/S 742 mmHg 73%
    10:00 +14°C° 0 mm 5 m/S 742 mmHg 67%
    11:00 +14°C° 0 mm 5 m/S 742 mmHg 68%
    12:00 +15°C° 0 mm 5 m/S 742 mmHg 69%
    13:00 +15°C° 0 mm 5 m/S 742 mmHg 71%
    14:00 +15°C° 0.1 mm 4 m/S 741 mmHg 73%
    15:00 +16°C° 0.1 mm 3 m/S 741 mmHg 76%
    16:00 +16°C° 0.1 mm 3 m/S 741 mmHg 78%
    17:00 +17°C° 0 mm 2 m/S 741 mmHg 80%
    18:00 +17°C° 0 mm 2 m/S 740 mmHg 81%
    19:00 +17°C° 0 mm 2 m/S 740 mmHg 82%
    20:00 +15°C° 0 mm 2 m/S 740 mmHg 86%
    21:00 +14°C° 0 mm 2 m/S 740 mmHg 89%
    22:00 +13°C° 0 mm 2 m/S 740 mmHg 93%
    23:00 +12°C° 0 mm 2 m/S 740 mmHg 93%

    27 Mai, Montag

    Zeit Temperatur Niederschläge Wind Luftdruck Luftfeuchtigkeit
    00:00 +11°C° 0 mm 3 m/S 739 mmHg 93%
    01:00 +11°C° 0 mm 3 m/S 739 mmHg 94%
    02:00 +11°C° 0 mm 3 m/S 739 mmHg 94%
    03:00 +11°C° 0 mm 3 m/S 739 mmHg 94%
    04:00 +11°C° 0 mm 3 m/S 738 mmHg 94%
    05:00 +12°C° 0 mm 4 m/S 738 mmHg 90%
    06:00 +13°C° 0 mm 4 m/S 738 mmHg 86%
    07:00 +14°C° 0 mm 4 m/S 738 mmHg 82%
    08:00 +15°C° 0 mm 4 m/S 738 mmHg 82%
    09:00 +15°C° 0 mm 4 m/S 738 mmHg 82%
    10:00 +17°C° 0 mm 4 m/S 738 mmHg 82%
    11:00 +15°C° 0.2 mm 4 m/S 738 mmHg 85%
    12:00 +14°C° 0.2 mm 3 m/S 738 mmHg 88%
    13:00 +14°C° 0.2 mm 3 m/S 737 mmHg 90%
    14:00 +16°C° 0 mm 3 m/S 737 mmHg 85%
    15:00 +15°C° 0 mm 4 m/S 737 mmHg 81%
    16:00 +17°C° 0 mm 4 m/S 737 mmHg 76%
    17:00 +17°C° 0 mm 3 m/S 737 mmHg 77%
    18:00 +16°C° 0 mm 2 m/S 737 mmHg 79%
    19:00 +16°C° 0 mm 2 m/S 737 mmHg 81%
    20:00 +14°C° 0 mm 1 m/S 737 mmHg 84%
    21:00 +13°C° 0 mm 1 m/S 737 mmHg 86%
    22:00 +10°C° 0 mm 0 m/S 737 mmHg 89%
    23:00 +10°C° 0 mm 0 m/S 736 mmHg 90%

    28 Mai, Dienstag

    Zeit Temperatur Niederschläge Wind Luftdruck Luftfeuchtigkeit
    00:00 +10°C° 0 mm 0 m/S 736 mmHg 91%
    01:00 +11°C° 0 mm 1 m/S 736 mmHg 91%
    02:00 +10°C° 0 mm 1 m/S 736 mmHg 92%
    03:00 +10°C° 0 mm 1 m/S 735 mmHg 93%
    04:00 +9°C° 0 mm 1 m/S 735 mmHg 94%
    05:00 +10°C° 0 mm 1 m/S 735 mmHg 89%
    06:00 +12°C° 0 mm 1 m/S 735 mmHg 84%
    07:00 +13°C° 0 mm 1 m/S 734 mmHg 79%
    08:00 +15°C° 0 mm 2 m/S 734 mmHg 73%
    09:00 +16°C° 0 mm 2 m/S 734 mmHg 67%
    10:00 +17°C° 0 mm 3 m/S 734 mmHg 61%
    11:00 +18°C° 0.1 mm 3 m/S 733 mmHg 59%
    12:00 +18°C° 0.1 mm 3 m/S 733 mmHg 56%
    13:00 +19°C° 0.1 mm 4 m/S 733 mmHg 54%
    14:00 +18°C° 0.1 mm 3 m/S 732 mmHg 59%
    15:00 +17°C° 0.1 mm 3 m/S 732 mmHg 64%
    16:00 +17°C° 0.1 mm 2 m/S 732 mmHg 69%
    17:00 +16°C° 0.2 mm 2 m/S 732 mmHg 75%
    18:00 +14°C° 0.2 mm 3 m/S 732 mmHg 80%
    19:00 +13°C° 0.2 mm 3 m/S 732 mmHg 86%
    20:00 +12°C° 0.3 mm 3 m/S 732 mmHg 89%
    21:00 +11°C° 0.3 mm 3 m/S 732 mmHg 91%
    22:00 +11°C° 0.3 mm 3 m/S 732 mmHg 94%
    23:00 +10°C° 0 mm 3 m/S 732 mmHg 95%
    Mehr zeigen